Breckenridge, TX

11:22 AM CST on February 12, 2016 (GMT -0600)
Stephens County

Weather History for KBKD - September, 2012

Change the Weather History Date:

Friday, September 21, 2012

  Actual Average (KABI) Record (KABI)
Temperature  
Mean Temperature 78 °F 74 °F  
Max Temperature 95 °F 85 °F 101 °F (1998)
Min Temperature 62 °F 62 °F 42 °F (1983)
Degree Days  
Heating Degree Days 0 1  
Month to date heating degree days 2  
Since 1 July heating degree days 2  
Cooling Degree Days 14 9  
Month to date cooling degree days 256  
Year to date cooling degree days 2201  
Growing Degree Days 28 (Base 50)    
Moisture  
Dew Point 47 °F    
Average Humidity 34    
Maximum Humidity 59    
Minimum Humidity 14    
Precipitation  
Precipitation 0.00 in 0.07 in 1.72 in (1900)
Month to date precipitation 1.58  
Year to date precipitation 18.54  
Sea Level Pressure  
Sea Level Pressure 29.97 in    
Wind  
Wind Speed 9 mph (SSW)    
Max Wind Speed 15 mph    
Max Gust Speed 20 mph    
Visibility 10 miles    
Events      
T = Trace of Precipitation, MM = Missing Value Source: NWS Daily Summary

Daily Weather History Graph

Daily Weather History Graph

Search for Another Location

Airport or City:

Trip Planner

Search our weather history database for the weather conditions in past years. The results will help you decide how hot, cold, wet, or windy it might be!

Date:

Astronomy

Sep. 21, 2012 Rise Set
Actual Time 7:23 AM CDT 7:32 PM CDT
Civil Twilight 6:58 AM CDT 7:57 PM CDT
Nautical Twilight 6:30 AM CDT 8:26 PM CDT
Astronomical Twilight 6:01 AM CDT 8:55 PM CDT
Moon 1:26 PM CDT (9/21) 11:55 PM CDT (9/21)
Length of Visible Light 12h 58m
Length of Day
12h 09m
Waxing Crescent, 37% of the Moon is Illuminated
Sep 21
Waxing Crescent
Sep 22
First Quarter
Sep 29
Full
Oct 8
Last Quarter
Oct 15
New

Hourly Weather History & Observations

Time (CDT) Temp. Dew Point Humidity Pressure Visibility Wind Dir Wind Speed Gust Speed Precip Events Conditions
12:15 AM 75.2 °F 46.4 °F 36% 29.97 in 10.0 mi South 9.2 mph - N/A   Clear
12:35 AM 73.4 °F 48.2 °F 41% 29.97 in 10.0 mi South 9.2 mph - N/A   Clear
12:55 AM 73.4 °F 50.0 °F 44% 29.97 in 10.0 mi South 8.1 mph - N/A   Clear
1:15 AM 71.6 °F 50.0 °F 46% 29.97 in 10.0 mi South 8.1 mph - N/A   Clear
1:35 AM 71.6 °F 51.8 °F 50% 29.97 in 10.0 mi South 9.2 mph - N/A   Clear
1:55 AM 71.6 °F 51.8 °F 50% 29.97 in 10.0 mi South 9.2 mph - N/A   Clear
2:15 AM 71.6 °F 51.8 °F 50% 29.98 in 10.0 mi SSW 9.2 mph - N/A   Clear
2:35 AM 71.6 °F 51.8 °F 50% 29.98 in 10.0 mi SSW 9.2 mph - N/A   Clear
2:55 AM 71.6 °F 51.8 °F 50% 29.98 in 10.0 mi South 9.2 mph - N/A   Clear
3:15 AM 69.8 °F 51.8 °F 53% 29.97 in 10.0 mi South 8.1 mph - N/A   Clear
3:35 AM 69.8 °F 51.8 °F 53% 29.97 in 10.0 mi South 9.2 mph - N/A   Clear
3:55 AM 69.8 °F 50.0 °F 49% 29.96 in 10.0 mi South 10.4 mph - N/A   Clear
4:15 AM 69.8 °F 50.0 °F 49% 29.96 in 10.0 mi SSW 11.5 mph 17.3 mph N/A   Clear
4:35 AM 71.6 °F 50.0 °F 46% 29.96 in 10.0 mi SSW 9.2 mph - N/A   Clear
4:55 AM 69.8 °F 50.0 °F 49% 29.97 in 10.0 mi SW 9.2 mph - N/A   Clear
5:15 AM 68.0 °F 50.0 °F 52% 29.97 in 10.0 mi SSW 8.1 mph - N/A   Clear
5:35 AM 68.0 °F 50.0 °F 52% 29.97 in 10.0 mi SSW 6.9 mph - N/A   Clear
5:55 AM 66.2 °F 50.0 °F 56% 29.97 in 10.0 mi SSW 9.2 mph - N/A   Clear
6:15 AM 66.2 °F 50.0 °F 56% 29.98 in 10.0 mi SSW 6.9 mph - N/A   Clear
6:35 AM 64.4 °F 50.0 °F 59% 29.98 in 10.0 mi SSW 5.8 mph - N/A   Clear
6:55 AM 64.4 °F 48.2 °F 56% 29.98 in 10.0 mi SW 4.6 mph - N/A   Clear
7:15 AM 62.6 °F 46.4 °F 55% 29.99 in 10.0 mi SW 3.5 mph - N/A   Clear
7:35 AM 64.4 °F 50.0 °F 59% 29.99 in 10.0 mi South 5.8 mph - N/A   Clear
7:55 AM 64.4 °F 48.2 °F 56% 30.00 in 10.0 mi Calm Calm - N/A   Clear
8:15 AM 64.4 °F 50.0 °F 59% 30.01 in 10.0 mi South 3.5 mph - N/A   Clear
8:35 AM 69.8 °F 50.0 °F 49% 30.00 in 10.0 mi South 5.8 mph - N/A   Clear
8:55 AM 71.6 °F 46.4 °F 41% 30.00 in 10.0 mi SSW 5.8 mph - N/A   Clear
9:15 AM 73.4 °F 46.4 °F 38% 30.00 in 10.0 mi WSW 10.4 mph - N/A   Clear
9:35 AM 77.0 °F 46.4 °F 34% 30.00 in 10.0 mi WSW 12.7 mph 16.1 mph N/A   Clear
9:55 AM 78.8 °F 48.2 °F 34% 30.00 in 10.0 mi SW 13.8 mph 18.4 mph N/A   Clear
10:15 AM 80.6 °F 50.0 °F 34% 30.01 in 10.0 mi SW 10.4 mph 18.4 mph N/A   Clear
10:35 AM 80.6 °F 50.0 °F 34% 30.01 in 10.0 mi WSW 13.8 mph 19.6 mph N/A   Clear
10:55 AM 82.4 °F 50.0 °F 32% 30.01 in 10.0 mi WSW 13.8 mph - N/A   Clear
11:15 AM 86.0 °F 50.0 °F 29% 30.01 in 10.0 mi SW 15.0 mph - N/A   Clear
11:35 AM 86.0 °F 50.0 °F 29% 30.01 in 10.0 mi WSW 12.7 mph 18.4 mph N/A   Clear
11:55 AM 87.8 °F 50.0 °F 27% 30.00 in 10.0 mi SW 12.7 mph - N/A   Clear
12:15 PM 89.6 °F 50.0 °F 26% 29.99 in 10.0 mi SW 10.4 mph - N/A   Clear
12:35 PM 89.6 °F 50.0 °F 26% 29.99 in 10.0 mi SW 9.2 mph 17.3 mph N/A   Clear
12:55 PM 91.4 °F 50.0 °F 24% 29.98 in 10.0 mi SW 4.6 mph - N/A   Clear
1:15 PM 91.4 °F 50.0 °F 24% 29.98 in 10.0 mi WSW 9.2 mph - N/A   Clear
1:35 PM 91.4 °F 48.2 °F 23% 29.97 in 10.0 mi SW 8.1 mph - N/A   Clear
1:55 PM 93.2 °F 46.4 °F 20% 29.97 in 10.0 mi SSW 9.2 mph - N/A   Clear
2:15 PM 95.0 °F 46.4 °F 19% 29.96 in 10.0 mi South 8.1 mph - N/A   Clear
2:35 PM 95.0 °F 44.6 °F 18% 29.95 in 10.0 mi South 8.1 mph - N/A   Clear
2:55 PM 95.0 °F 44.6 °F 18% 29.94 in 10.0 mi SSW 9.2 mph - N/A   Clear
3:15 PM 95.0 °F 44.6 °F 18% 29.93 in 10.0 mi SSW 8.1 mph 16.1 mph N/A   Clear
3:35 PM 95.0 °F 42.8 °F 16% 29.93 in 10.0 mi SW 11.5 mph 17.3 mph N/A   Clear
3:55 PM 95.0 °F 42.8 °F 16% 29.93 in 10.0 mi SSE 4.6 mph - N/A   Clear
4:15 PM 95.0 °F 42.8 °F 16% 29.93 in 10.0 mi SSW 12.7 mph - N/A   Clear
4:35 PM 95.0 °F 42.8 °F 16% 29.92 in 10.0 mi SSW 8.1 mph - N/A   Clear
4:55 PM 95.0 °F 41.0 °F 15% 29.92 in 10.0 mi South 9.2 mph 16.1 mph N/A   Clear
5:15 PM 95.0 °F 41.0 °F 15% 29.92 in 10.0 mi South 10.4 mph - N/A   Clear
5:55 PM 95.0 °F 39.2 °F 14% 29.92 in 10.0 mi SSW 8.1 mph - N/A   Clear
6:15 PM 95.0 °F 39.2 °F 14% 29.92 in 10.0 mi SW 6.9 mph - N/A   Clear
6:35 PM 93.2 °F 41.0 °F 16% 29.92 in 10.0 mi SW 5.8 mph - N/A   Clear
6:55 PM 91.4 °F 42.8 °F 18% 29.92 in 10.0 mi SSW 5.8 mph - N/A   Clear
7:15 PM 87.8 °F 44.6 °F 22% 29.92 in 10.0 mi SSW 5.8 mph - N/A   Clear
7:35 PM 87.8 °F 42.8 °F 21% 29.93 in 10.0 mi SSE 6.9 mph - N/A   Clear
7:55 PM 84.2 °F 42.8 °F 23% 29.93 in 10.0 mi South 9.2 mph - N/A   Clear
8:15 PM 84.2 °F 41.0 °F 22% 29.94 in 10.0 mi SSE 8.1 mph - N/A   Clear
8:35 PM 82.4 °F 41.0 °F 23% 29.95 in 10.0 mi SSE 9.2 mph - N/A   Clear
8:55 PM 80.6 °F 41.0 °F 24% 29.95 in 10.0 mi SSE 10.4 mph - N/A   Clear
9:15 PM 78.8 °F 42.8 °F 28% 29.96 in 10.0 mi SSE 8.1 mph - N/A   Clear
9:35 PM 77.0 °F 42.8 °F 29% 29.97 in 10.0 mi SSE 9.2 mph - N/A   Clear
9:55 PM 77.0 °F 42.8 °F 29% 29.97 in 10.0 mi SSE 10.4 mph - N/A   Clear
10:15 PM 77.0 °F 42.8 °F 29% 29.97 in 10.0 mi South 10.4 mph - N/A   Clear
10:35 PM 77.0 °F 42.8 °F 29% 29.98 in 10.0 mi South 11.5 mph - N/A   Clear
10:55 PM 77.0 °F 42.8 °F 29% 29.98 in 10.0 mi South 10.4 mph - N/A   Clear
11:15 PM 77.0 °F 42.8 °F 29% 29.98 in 10.0 mi South 8.1 mph - N/A   Clear
11:35 PM 75.2 °F 42.8 °F 31% 29.98 in 10.0 mi South 10.4 mph - N/A   Clear
11:55 PM 75.2 °F 42.8 °F 31% 29.98 in 10.0 mi South 10.4 mph - N/A   Clear